Location: Bernay
(48.6766°N, 2.9386°E)
Time: 05:56:46
(UTC+00:00)

Meteor 1-28 Rocket - Pass Details

Date: 12 January 2026
Orbit: 427 x 437 km, 97.6° (Epoch: 17 February)

Event Time Altitude Azimuth Distance (km) Brightness Sun altitude
Rises 16:55:10 0° 13° (NNE) 2,408 6.2 -6.5°
Maximum altitude 17:00:28 83° 102° (ESE) 437 2.8 -7.3°
Drops below altitude 10° 17:03:43 10° 192° (SSW) 1,519 6.1 -7.8°
Sets 17:05:43 0° 193° (SSW) 2,381 7.1 -8.1°
